Location: Columbia
(38.9520°N, 92.3340°W)
Time: 17:20:53
(UTC-05:00)

Cosmos 2219 Rocket - Visible Passes

Search period start: 28 August 2016 00:00
Search period end: 07 September 2016 00:00
Orbit: 828 x 847 km, 71.0° (Epoch: 27 August)

Date Brightness Start Highest point End Pass type
(mag) Time Alt. Az. Time Alt. Az. Time Alt. Az.
28 Aug 4.6 00:49:28 16° NNE 00:49:28 16° NNE 00:50:37 10° NNE visible
28 Aug 4.6 02:31:10 14° NNW 02:31:10 14° NNW 02:32:48 10° NNW visible
29 Aug 4.7 00:33:22 15° NNE 00:33:22 15° NNE 00:34:16 10° NNE visible
29 Aug 4.6 02:15:04 14° NNW 02:15:04 14° NNW 02:16:40 10° NNW visible
30 Aug 4.7 00:17:15 14° NNE 00:17:15 14° NNE 00:17:54 10° NNE visible
30 Aug 4.7 01:58:57 14° NNW 01:58:57 14° NNW 02:00:29 10° N visible
31 Aug 4.8 00:01:06 12° NNE 00:01:06 12° NNE 00:01:33 10° NNE visible
31 Aug 4.7 01:42:49 15° NNW 01:42:49 15° NNW 01:44:18 10° N visible
31 Aug 4.8 23:44:56 11° NNE 23:44:56 11° NNE 23:45:11 10° NNE visible
01 Sep 4.7 01:26:38 15° NNW 01:26:38 15° NNW 01:28:06 10° N visible
01 Sep 4.8 23:28:44 10° NNE 23:28:44 10° NNE 23:28:49 10° NNE visible
02 Sep 4.7 01:10:26 15° NNW 01:10:26 15° NNW 01:11:53 10° N visible
03 Sep 4.7 00:54:12 16° NNW 00:54:12 16° NNW 00:55:39 10° N visible
04 Sep 4.7 00:37:55 16° NNW 00:37:55 16° NNW 00:39:25 10° N visible
05 Sep 4.7 00:21:35 17° NNW 00:21:35 17° NNW 00:23:10 10° N visible
06 Sep 4.6 00:05:12 18° NNW 00:05:12 18° NNW 00:06:55 10° N visible
06 Sep 4.5 23:48:43 19° NNW 23:48:43 19° NNW 23:50:39 10° N visible
